Location: Lombard
(41.8800°N, 88.0080°W)
Time: 17:57:22
(UTC-06:00)

Vanguard 3 - Pass Details

Date: 16 December 2023
Orbit: 508 x 3239 km, 33.4° (Epoch: 23 February)

Event Time Altitude Azimuth Distance (km) Brightness Sun altitude
Rises 22:36:19 0° 276° (W) 6,731 12.1 -66.2°
Reaches altitude 10° 22:41:38 10° 270° (W) 5,367 11.4 -66.9°
Enters shadow 22:44:45 17° 265° (W) 4,552 11.0 -67.3°
